Home > Weather > Everett > Past weeks

Flag for U.S.A. Weather for the Past 2 Weeks in Everett, Washington, U.S.A.

Now
52 °F

Clear.


Feels Like: 51 °F
Forecast: 47 / 56 °F
Wind: 5 mph from North

Location: Snohomish County Airport

Current Time: Feb 10, 2016 at 4:48:55 AM

Latest Report: Feb 10, 2016 at 3:53 AM


Visibility: 10 mi

Pressure: 30.09 "Hg

Humidity: 57%

Dew point: 37 °F

Location of EverettLocation

Historic Weather in Everett — Graph

°F

Everett Temperature Yesterday

Maximum temperature yesterday: 63 °F (at 2:53 PM)
Minimum temperature yesterday: 40 °F (at 7:53 AM)
Average temperature yesterday: 52 °F

High & Low Weather Summary for the Past Weeks

 TemperatureHumidityPressure
High63 °F (Feb 9, 2:53 PM)93% (Jan 26, 9:53 PM)30.58 "Hg (Jan 26, 9:53 PM)
Low37 °F (Feb 2, 6:53 AM)40% (Feb 9, 3:53 PM)29.61 "Hg (Jan 29, 8:53 AM)
Average45 °F79%30.16 "Hg
* Reported Jan 26 2:53 AM — Feb 10 2:53 AM, Everett, Weather by CustomWeather, © 2016

Note: Actual official high and low records may vary slightly from our data, if they occured in-between our weather recording intervals... More about our weather records

Advertising

Everett Weather History for the Previous 24 Hours

 ConditionsComfort  
Time TempWeatherWind HumidityBarometerVisibility
2:53 AM
Wed, Feb 10
53 °FClear.5 mph55%30.10 "Hg10 mi
1:53 AM53 °FClear.5 mph55%30.11 "Hg10 mi
12:53 AM50 °FClear.6 mph61%30.11 "Hg10 mi
11:53 PM
Tue, Feb 9
52 °FClear.3 mph59%30.10 "Hg10 mi
10:53 PM56 °FClear.7 mph47%30.10 "Hg10 mi
9:53 PM55 °FClear.7 mph53%30.11 "Hg10 mi
8:53 PM57 °FClear.6 mph49%30.11 "Hg10 mi
7:53 PM57 °FClear.5 mph53%30.13 "Hg10 mi
6:53 PM58 °FClear.10 mph51%30.13 "Hg10 mi
5:53 PM59 °FClear.7 mph48%30.13 "Hg10 mi
4:53 PM61 °FSunny.6 mph44%30.13 "Hg10 mi
3:53 PM63 °FSunny.8 mph40%30.12 "Hg10 mi
2:53 PM63 °FSunny.9 mph41%30.11 "Hg10 mi
1:53 PM62 °FSunny.9 mph43%30.12 "Hg10 mi
12:53 PM61 °FSunny.7 mph46%30.15 "Hg10 mi
11:53 AM59 °FSunny.9 mph48%30.17 "Hg10 mi
10:53 AM55 °FSunny.8 mph57%30.19 "Hg10 mi
9:53 AM52 °FSunny.7 mph66%30.21 "Hg10 mi
8:53 AM46 °FSunny.3 mph79%30.20 "Hg10 mi
7:53 AM40 °FSunny.5 mph86%30.19 "Hg10 mi
6:53 AM43 °FClear.3 mph79%30.19 "Hg10 mi
5:53 AM42 °FClear.No wind82%30.20 "Hg10 mi
4:53 AM42 °FFog.No wind92%30.21 "Hg3 mi
Weather by CustomWeather, © 2016

See weather overviewHow to use our weather pages